Home   Weather   Cranbrook   Past weeks

Flag for Canada Past Weather in Cranbrook, British Columbia, Canada — Yesterday and Last 2 Weeks

Now
68 °F

Partly sunny.


Feels Like: 68 °F
Forecast: 52 / 75 °F
Wind: 9 mph from East

Location: Cranbrook

Current Time: Sep 30, 2016 at 4:15:07 PM

Latest Report: Sep 30, 2016 at 3:00 PM


Visibility: 25 mi

Pressure: 29.95 "Hg (26.86 "Hg at 933m altitude)

Humidity: 56%

Dew Point: 52 °F

Location of CranbrookLocation

Past Weather in Cranbrook — Graph

°F

Cranbrook Temperature Yesterday

Maximum temperature yesterday: 64 °F (at 3:00 PM)
Minimum temperature yesterday: 41 °F (at 9:00 AM)
Average temperature yesterday: 53 °F

High & Low Weather Summary for the Past Weeks

 TemperatureHumidityPressure
High79 °F (Sep 16, 4:00 PM)100% (Sep 18, 8:00 AM)30.44 "Hg (Sep 18, 8:00 AM)
Low37 °F (Sep 19, 7:00 AM)18% (Sep 16, 5:00 PM)29.69 "Hg (Sep 17, 10:00 PM)
Average54 °F66%30.08 "Hg
* Reported Sep 15 3:00 PM — Sep 30 3:00 PM, Cranbrook, Weather by CustomWeather, © 2016

Note: Actual official high and low records may vary slightly from our data, if they occured in-between our weather recording intervals... More about our weather records

Advertising

Cranbrook Weather History for the Previous 24 Hours

Scroll right to see more
 ConditionsComfort  
Time TempWeatherWind HumidityBarometerVisibility
3:00 PM
Fri, Sep 30
68 °FPartly sunny.9 mph56%29.95 "Hg25 mi
2:00 PM66 °FScattered showers. Partly sunny.9 mph56%29.97 "Hg25 mi
1:00 PM66 °FPartly sunny.8 mph56%30.00 "Hg25 mi
12:00 PM59 °FScattered showers. Broken clouds.2 mph72%30.01 "Hg25 mi
11:00 AM59 °FBroken clouds.No wind72%30.02 "Hg25 mi
10:00 AM55 °FBroken clouds.2 mph82%30.02 "Hg25 mi
9:00 AM52 °FScattered showers. Broken clouds.2 mph88%30.04 "Hg25 mi
8:00 AM52 °FScattered showers. Partly cloudy.7 mph88%30.04 "Hg20 mi
7:53 AM54 °FScattered showers. Partly cloudy.7 mph82%30.03 "Hg20 mi
7:00 AM54 °FSprinkles. Passing clouds.3 mph82%30.03 "Hg25 mi
6:00 AM50 °FSprinkles. Mostly cloudy.3 mph94%30.03 "Hg25 mi
5:00 AM50 °FMostly cloudy.3 mph88%30.01 "Hg25 mi
4:00 AM50 °FMostly cloudy.3 mph82%30.02 "Hg25 mi
3:00 AM48 °FMostly cloudy.7 mph94%30.01 "Hg25 mi
2:00 AM48 °FPartly cloudy.6 mph87%30.00 "Hg25 mi
1:00 AM48 °FPassing clouds.5 mph87%30.00 "Hg25 mi
12:00 AM52 °FPassing clouds.3 mph82%30.00 "Hg25 mi
11:00 PM
Thu, Sep 29
52 °FPassing clouds.3 mph82%30.00 "Hg25 mi
10:00 PM50 °FPassing clouds.5 mph82%30.00 "Hg25 mi
9:00 PM55 °FPassing clouds.2 mph67%30.01 "Hg25 mi
8:00 PM57 °FScattered clouds.No wind63%30.01 "Hg25 mi
7:00 PM63 °FBroken clouds.2 mph52%29.99 "Hg25 mi
6:00 PM64 °FBroken clouds.No wind49%30.00 "Hg25 mi
5:00 PM64 °FBroken clouds.5 mph49%30.00 "Hg25 mi
4:00 PM63 °FScattered showers. Partly sunny.5 mph52%30.03 "Hg25 mi
Weather by CustomWeather, © 2016

See weather overviewHow to use our weather pages